Location: ???? ????
(41.4149°N, 22.8816°E)
Time: 12:10:49
(UTC+00:00)

SeaSat 1 - Pass Details

Date: 14 July 2020
Orbit: 744 x 748 km, 108.0° (Epoch: 10 August)

Event Time Altitude Azimuth Distance (km) Brightness Sun altitude
Rises 00:36:09 0° 23° (NNE) 3,199 7.3 -20.9°
Reaches altitude 10° 00:38:25 10° 22° (NNE) 2,271 6.1 -20.7°
Maximum altitude 00:43:20 71° 299° (WNW) 790 2.5 -20.2°
Enters shadow 00:45:00 41° 227° (SW) 1,068 2.8 -20.1°
